Regional Weather Roundup
Issued by NWS Charleston, SC

Current Version | Previous Version | Text Only | Print | Product List | Glossary Off
Versions: 1 2 3 4 5 6 7 8 9 10 11 12 13 14 15 16 17 18 19 20 21 22 23 24 25 26 27 28 29 30 31 32 33 34 35 36 37 38 39 40 41 42 43 44 45 46 47 48 49 50

000
ASUS42 KCHS 211327
RWRCHS

Regional Weather Roundup
National Weather Service Charleston SC
800 AM EST SUN JAN 21 2018

NOTE: "fair" indicates few or no clouds below 12,000 feet with no
significant weather and/or obstructions to visibility.

Not all stations are quality controlled. Use data with caution,
especially dewpoint observations.

SCZ027-030-031-034>040-042>050-211400-
...Southeast South Carolina...

CITY           SKY/WX    TMP DP  RH WIND       PRES   REMARKS
N Charleston   FAIR      42  31  64 CALM      30.27R
Waterfront Prk NOT AVBL
Mount Pleasant FAIR      43  36  75 CALM      30.27S
Johns Island   FAIR      46  36  66 CALM      30.28R
Pinopolis        N/A     45  36  70 VRB2      30.19R
Moncks Corner  FAIR      37  32  81 CALM      30.27R
Summerville    FAIR      37  34  87 CALM      30.29R
Beaufort MCAS  FAIR      44  38  79 CALM      30.28R
Beaufort Arpt  FAIR      45  34  65 CALM      30.27R
Hilton Head Is MOCLDY    48  30  49 SW6       30.27R
Walterboro     FAIR      36  34  93 CALM      30.29R
Allendale      FAIR      41  39  93 CALM      30.25S

...Southern Midlands and Pee Dee...

CITY           SKY/WX    TMP DP  RH WIND       PRES   REMARKS
Georgetown     FAIR      43  34  70 CALM      30.27S
Kingstree      FAIR      34  32  93 CALM      30.27R
Orangeburg     FAIR      34  33  96 CALM      30.26R
Barnwell         N/A     36  34  93 CALM      30.26R
Aiken          FAIR      34  32  93 CALM      30.28S
Manning        FAIR      34  32  93 MISG      30.28R
Columbia       FAIR      32  31  96 CALM      30.26R
Sumter         FAIR      36  32  88 CALM      30.23S
Florence       FAIR      35  31  85 CALM      30.26R
Myrtle Beach   FAIR      41  33  73 N3        30.27R
N Myrtle Beach FAIR      39  34  82 CALM      30.25S

$$

GAZ063-065-086>088-099>101-113>116-118-119-134>141-150-211400-
...Southeast Georgia...

CITY           SKY/WX    TMP DP  RH WIND       PRES   REMARKS
Savannah Arpt  MOCLDY    42  33  70 CALM      30.28R
Hunter AAF     FAIR      43  32  63 CALM      30.24R
Fort Stewart   FAIR      41  34  76 CALM      30.25R
Statesboro     FAIR      41  35  77 CALM      30.27R
Sylvania       FAIR      42  40  91 CALM      30.27R
Claxton        FAIR      41  38  91 CALM      30.28R

...CSRA, Central and far Southeast Georgia...

CITY           SKY/WX    TMP DP  RH WIND       PRES   REMARKS
Thomson        FAIR      32  31  94 CALM      30.30S
Augusta-Bush   FAIR      32  31  96 CALM      30.26S
Augusta-Daniel FAIR      44  39  82 NW3       30.26R HAZE
Swainsboro     FAIR      37  37 100 CALM      30.29R
Vidalia        FAIR      41  37  87 CALM      30.28R
Eastman        FAIR      40  35  80 CALM      30.31S HAZE
Hazlehurst     FAIR      44  36  72 CALM      30.28R
Alma           FAIR      38  34  85 CALM      30.27R
Waycross       FAIR      41  37  84 CALM      30.28R
Jesup          FAIR      43  36  75 CALM      30.29R
Baxley         FAIR      37  36  93 CALM      30.28R
Brunswick      FAIR      46  37  71 NW3       30.29R
Saint Simons   FAIR      46  38  73 CALM      30.26S

$$

SCZ027-028-034-036>038-045-046-048>050-GAZ119-141-211400-
...Lake and Supplemental Coastal Observations...

STATION/POSITION TIME  TEMP    WIND        PRES    WAVE   SWELL
                       AIR SEA DIR/SP/G            HT/PER HT/PER/DIR
                 (UTC) (F)     (DEG/KT/KT) (MB)    (FT/S) (FT/S/D)
Winyah Bay       1245   47     310/  3     1025.0R
Lake Murray      1250   40        CALM     1023.7S
ACE Basin NERRS  1245   43        CALM     1025.0S
Fort Pulaski     1300   47 46   CALM  /  1 1025.2
Sapelo Island    1300   46     170/  3     1025.0

$$

ANZ835-935-AMZ111-154-330-350-352-354-370-450-454-472-211400-
...C-MAN and Buoy Observations...

STATION/POSITION TIME  TEMP    WIND        PRES    WAVE   SWELL
                       AIR SEA DIR/SP/G            HT/PER HT/PER/DIR
                 (UTC) (F)     (DEG/KT/KT) (MB)    (FT/S) (FT/S/D)
Buoy 41004       1310   60     290/  8/ 12 1024.6
Buoy 41008       1250   51 50  240/  2/  4 1025.2R   1/11   2/ 70/11
Folly Beach CMAN 1300   49     260/  2/  2 1025.3R
Capers Nearshore 1308   45     280/  4/  6 1024.6R
Fripp Nearshore  1308   44 46  280/  2/  2 1023.7R


STATION/POSITION TIME  TEMP    WIND        PRES    WAVE   SWELL
                       AIR SEA DIR/SP/G            HT/PER HT/PER/DIR
                 (UTC) (F)     (DEG/KT/KT) (MB)    (FT/S) (FT/S/D)
5E St. Marys GA  1300      48                N/A     1/13
Frying Pan Buoy  1310   53     330/  8/  8 1024.5
Buoy 41025       1310   56     310/ 14/ 17 1023.7
Cape Lookout NC  1300          270/  5/  6 1024.3R
Buoy 41002       1250   68 70  220/  8/ 10 1024.4R   3/ 5   3/280/ 5
Buoy 41010       NOT AVBL
St Augustine FL  1300   51 51  350/  5/  6 1024.6F


$$



USA.gov is the U.S. government's official web portal to all federal, state and local government web resources and services.